Simultaneous Nadir Overpasses (SNOs) Predictions

Prediction of SNOs between FY3D and TERRA Satellite Orbit:

Table of predicted SNOs for the next 14.0 days since TLE Epoch: 8/3/2019
Index Date (FY3D) Time (FY3D) Lat,Lon (FY3D) SZA (FY3D ) Date (TERRA) Time (TERRA) Lat,Lon (TERRA) SZA (TERRA ) Distance(km) Time Diff (sec)
1 08/04/2019 01:54:19 -68.82, -29.46 128.62 08/04/2019 01:54:51 -68.83, -29.41 128.61 2.48 32
2 08/04/2019 02:45:02 68.68, 138.04 51.25 08/04/2019 02:44:19 68.67, 138.04 51.24 0.68 43
3 08/06/2019 18:10:46 -68.83, 86.41 127.88 08/06/2019 18:11:20 -68.82, 86.45 127.91 2.68 34
4 08/06/2019 19:01:29 68.69,-106.09 51.98 08/06/2019 19:00:47 68.71,-106.04 52.00 3.07 42
5 08/09/2019 10:27:11 -68.79,-157.65 127.17 08/09/2019 10:27:48 -68.80,-157.69 127.17 1.78 37
6 08/09/2019 11:17:55 68.70, 9.78 52.75 08/09/2019 11:17:15 68.69, 9.82 52.74 1.94 40
7 08/12/2019 02:43:38 -68.81, -41.78 126.37 08/12/2019 02:44:16 -68.83, -41.77 126.35 2.61 38
8 08/12/2019 03:34:21 68.66, 125.73 53.49 08/12/2019 03:33:44 68.66, 125.66 53.49 2.56 37
9 08/14/2019 19:00:05 -68.82, 74.09 125.55 08/14/2019 19:00:45 -68.80, 74.07 125.57 1.91 40
10 08/14/2019 19:50:48 68.67,-118.40 54.31 08/14/2019 19:50:12 68.69,-118.42 54.33 2.28 36




NCC Satellite Simultaneous Nadir Overpasses (SNOs) Prediction Service
